Mount Ida, AR

2:38 AM CDT on September 25, 2017 (GMT -0500)
Mount Ida

Weather History for KMWT - February, 2013

Change the Weather History Date:

Sunday, February 24, 2013

  Actual Average (KHOT) Record (KHOT)
Temperature  
Mean Temperature 43 °F -  
Max Temperature 60 °F 62 °F 82 °F (1982)
Min Temperature 26 °F 36 °F 13 °F (1989)
Degree Days  
Heating Degree Days 22    
Moisture  
Dew Point 31 °F    
Average Humidity 67    
Maximum Humidity 100    
Minimum Humidity 36    
Precipitation  
Precipitation 0.00 in - - ()
Sea Level Pressure  
Sea Level Pressure 29.95 in    
Wind  
Wind Speed 2 mph (ESE)    
Max Wind Speed 10 mph    
Max Gust Speed 16 mph    
Visibility 10 miles    
Events      
Averages and records for this station are not official NWS values.
T = Trace of Precipitation, MM = Missing Value Source: NWS Daily Summary

Daily Weather History Graph

Daily Weather History Graph

Search for Another Location

Airport or City:

Trip Planner

Search our weather history database for the weather conditions in past years. The results will help you decide how hot, cold, wet, or windy it might be!

Date:

Astronomy

Feb. 24, 2013 Rise Set
Actual Time 6:49 AM CST 6:06 PM CST
Civil Twilight 6:23 AM CST 6:31 PM CST
Nautical Twilight 5:54 AM CST 7:00 PM CST
Astronomical Twilight 5:25 AM CST 7:30 PM CST
Moon 5:17 PM CST (2/24) 5:45 AM CST (2/24)
Length of Visible Light 12h 07m
Length of Day
11h 16m
Waxing Gibbous, 99% of the Moon is Illuminated
Feb 24
Waxing Gibbous
Feb 25
Full
Mar 4
Last Quarter
Mar 11
New
Mar 19
First Quarter

Hourly Weather History & Observations

Time (CST) Temp. Windchill Dew Point Humidity Pressure Visibility Wind Dir Wind Speed Gust Speed Precip Events Conditions
12:53 AM 30.0 °F - 28.0 °F 92% 29.99 in 8.0 mi Calm Calm - N/A   Clear
1:53 AM 28.9 °F - 27.0 °F 92% 30.00 in 9.0 mi Calm Calm - N/A   Clear
2:53 AM 28.0 °F - 26.1 °F 92% 29.99 in 8.0 mi Calm Calm - N/A   Clear
3:53 AM 27.0 °F - 25.0 °F 92% 30.00 in 10.0 mi Calm Calm - N/A   Clear
4:53 AM 26.1 °F - 25.0 °F 96% 30.00 in 10.0 mi Calm Calm - N/A   Clear
5:53 AM 26.1 °F - 24.1 °F 92% 30.01 in 10.0 mi Calm Calm - N/A   Clear
6:53 AM 26.1 °F - 24.1 °F 92% 30.03 in 9.0 mi Calm Calm - N/A   Clear
7:53 AM 28.0 °F - 28.0 °F 100% 30.03 in 10.0 mi Calm Calm - N/A   Clear
8:53 AM 37.9 °F - 33.1 °F 83% 30.06 in 10.0 mi Calm Calm - N/A   Clear
9:53 AM 45.0 °F 43.5 °F 30.9 °F 58% 30.05 in 10.0 mi Variable 3.5 mph - N/A   Clear
10:53 AM 50.0 °F - 30.9 °F 48% 30.03 in 10.0 mi ESE 5.8 mph - N/A   Clear
11:53 AM 54.0 °F - 33.1 °F 45% 29.99 in 10.0 mi Variable 4.6 mph - N/A   Clear
12:53 PM 55.9 °F - 33.1 °F 42% 29.96 in 10.0 mi SSE 10.4 mph 16.1 mph N/A   Clear
1:53 PM 57.9 °F - 33.1 °F 39% 29.93 in 10.0 mi SSE 4.6 mph - N/A   Clear
2:53 PM 60.1 °F - 33.1 °F 36% 29.91 in 10.0 mi ESE 6.9 mph - N/A   Clear
3:53 PM 59.0 °F - 32.0 °F 36% 29.88 in 10.0 mi SE 9.2 mph - N/A   Clear
4:53 PM 59.0 °F - 32.0 °F 36% 29.86 in 10.0 mi ESE 5.8 mph - N/A   Clear
5:53 PM 55.0 °F - 32.0 °F 42% 29.86 in 10.0 mi ESE 5.8 mph - N/A   Clear
6:53 PM 52.0 °F - 33.1 °F 49% 29.87 in 10.0 mi ESE 4.6 mph - N/A   Clear
7:53 PM 50.0 °F - 35.1 °F 57% 29.88 in 10.0 mi East 3.5 mph - N/A   Clear
8:53 PM 46.9 °F - 35.1 °F 63% 29.87 in 10.0 mi Variable 3.5 mph - N/A   Clear
9:53 PM 44.1 °F - 35.1 °F 71% 29.85 in 10.0 mi Calm Calm - N/A   Clear
10:53 PM 41.0 °F - 34.0 °F 76% 29.84 in 10.0 mi Calm Calm - N/A   Clear
11:53 PM 39.0 °F - 34.0 °F 82% 29.81 in 10.0 mi Calm Calm - N/A   Clear